Torna al catalogo

STARLINK-36434

AttivoComunicazioniVLEO
NORAD 67322·PAYLOAD·🇺🇸 United States

Lanciato Jan 4, 2026 da Cape Canaveral Space Force Station

Loading…

Prossimi Passaggi (prossime 24 ore)

TLE

AggiornatoSource: CelesTrak SupGP

Epoca: Sep 15, 2026, 03:00 UTC

1 67322C 26002T   26258.12548611  .00040975  00000+0  14838-2 0  2589
2 67322  43.0008 335.7397 0001403 263.9871 222.1114 15.27565983    13

Traccia STARLINK-36434 in tempo reale con AllMySat

Download on the App Store